2016-07-27 00:02:22 r, 18.28m,0000000004Hz,0000106499c,0000000.231s, 033.8C,00002195
2016-07-27 00:12:25 r, 18.20m,0000000005Hz,0000099259c,0000000.215s, 033.8C,00002195
2016-07-27 00:22:22 r, 18.35m,0000000004Hz,0000113505c,0000000.246s, 033.5C,00002195
2016-07-27 00:32:22 r, 18.43m,0000000004Hz,0000122001c,0000000.265s, 033.5C,00002195
2016-07-27 00:42:22 r, 18.16m,0000000005Hz,0000096014c,0000000.208s, 033.5C,00002195
2016-07-27 00:52:22 r, 18.11m,0000000005Hz,0000090628c,0000000.197s, 033.1C,00002195
2016-07-27 01:02:22 r, 18.24m,0000000004Hz,0000102608c,0000000.223s, 033.1C,00002195
2016-07-27 01:12:22 r, 18.55m,0000000003Hz,0000136218c,0000000.296s, 033.1C,00002195
2016-07-27 01:22:22 r, 18.54m,0000000004Hz,0000136110c,0000000.295s, 032.8C,00002195
2016-07-27 01:32:22 r, 18.53m,0000000003Hz,0000134269c,0000000.291s, 032.8C,00002195
2016-07-27 01:42:22 r, 18.48m,0000000004Hz,0000127786c,0000000.277s, 032.5C,00002195
2016-07-27 01:52:22 r, 18.44m,0000000004Hz,0000122993c,0000000.267s, 032.5C,00002195
2016-07-27 02:02:22 r, 18.38m,0000000004Hz,0000117107c,0000000.254s, 032.5C,00002195
2016-07-27 02:12:22 r, 18.56m,0000000003Hz,0000137996c,0000000.299s, 032.2C,00002195
2016-07-27 02:22:23 r, 18.68m,0000000003Hz,0000153610c,0000000.333s, 032.2C,00002195
2016-07-27 02:32:22 r, 18.72m,0000000003Hz,0000159311c,0000000.346s, 032.2C,00002195
2016-07-27 02:42:23 r, 18.68m,0000000003Hz,0000154423c,0000000.335s, 031.9C,00002195
2016-07-27 02:52:24 r, 18.70m,0000000003Hz,0000156289c,0000000.339s, 031.5C,00002195
2016-07-27 03:02:23 r, 18.74m,0000000003Hz,0000162196c,0000000.352s, 031.5C,00002195
2016-07-27 03:12:23 r, 18.73m,0000000003Hz,0000162227c,0000000.352s, 031.2C,00002195
2016-07-27 03:22:22 r, 18.72m,0000000003Hz,0000161159c,0000000.350s, 031.2C,00002195
2016-07-27 03:32:22 r, 18.70m,0000000003Hz,0000158386c,0000000.344s, 031.2C,00002195
2016-07-27 03:42:24 r, 18.70m,0000000003Hz,0000156787c,0000000.340s, 030.9C,00002195
2016-07-27 03:52:22 r, 18.67m,0000000003Hz,0000153598c,0000000.333s, 030.9C,00002195
2016-07-27 04:02:22 r, 18.62m,0000000003Hz,0000146972c,0000000.319s, 030.9C,00002195
2016-07-27 04:12:23 r, 18.52m,0000000004Hz,0000133655c,0000000.290s, 030.9C,00002195
2016-07-27 04:22:22 r, 18.29m,0000000004Hz,0000108278c,0000000.235s, 030.9C,00002195
2016-07-27 04:32:22 r, 17.89m,0000000006Hz,0000074811c,0000000.162s, 030.6C,00002195
2016-07-27 04:42:22 r, 17.03m,0000000014Hz,0000033867c,0000000.073s, 030.6C,00002195
2016-07-27 04:52:23 r, 16.19m,0000000029Hz,0000015593c,0000000.034s, 030.6C,00002195
2016-07-27 05:02:22 r, 14.95m,0000000092Hz,0000004978c,0000000.011s, 030.6C,00002195
2016-07-27 05:12:22 r, 13.30m,0000000427Hz,0000000000c,0000000.000s, 030.6C,00002195
2016-07-27 05:22:24 r, 11.60m,0000002044Hz,0000000000c,0000000.000s, 030.6C,00002195
2016-07-27 05:32:22 r, 10.02m,0000008828Hz,0000000000c,0000000.000s, 030.6C,00002195
2016-07-27 05:42:22 r, 08.68m,0000029836Hz,0000000000c,0000000.000s, 030.2C,00002195
2016-07-27 05:52:23 r, 07.68m,0000075285Hz,0000000000c,0000000.000s, 030.2C,00002195
2016-07-27 06:02:23 r, 06.97m,0000145285Hz,0000000000c,0000000.000s, 030.2C,00002195
2016-07-27 06:12:22 r, 06.36m,0000254400Hz,0000000000c,0000000.000s, 030.2C,00002195
2016-07-27 06:22:25 r, 00.00m,0000402794Hz,0000000000c,0000000.000s, 030.2C,00002195
2016-07-27 06:32:22 r, 00.00m,0000563994Hz,0000000000c,0000000.000s, 030.6C,00002195
2016-07-27 06:42:22 r, 00.00m,0000563960Hz,0000000000c,0000000.000s, 030.9C,00002195
2016-07-27 06:52:23 r, 00.00m,0000563967Hz,0000000000c,0000000.000s, 030.9C,00002195
2016-07-27 07:02:22 r, 00.00m,0000563953Hz,0000000000c,0000000.000s, 030.9C,00002195
2016-07-27 07:12:22 r, 00.00m,0000564066Hz,0000000000c,0000000.000s, 031.2C,00002195
2016-07-27 07:22:22 r, 00.00m,0000564118Hz,0000000000c,0000000.000s, 031.2C,00002195
2016-07-27 07:32:23 r, 00.00m,0000564057Hz,0000000000c,0000000.000s, 031.2C,00002195
2016-07-27 07:42:22 r, 00.00m,0000564093Hz,0000000000c,0000000.000s, 031.5C,00002195
2016-07-27 07:52:25 r, 00.00m,0000564090Hz,0000000000c,0000000.000s, 031.9C,00002195
2016-07-27 08:02:23 r, 00.00m,0000564205Hz,0000000000c,0000000.000s, 031.9C,00002195
2016-07-27 08:12:23 r, 00.00m,0000564202Hz,0000000000c,0000000.000s, 032.2C,00002195
2016-07-27 08:22:23 r, 00.00m,0000564242Hz,0000000000c,0000000.000s, 032.5C,00002195
2016-07-27 08:32:23 r, 00.00m,0000564282Hz,0000000000c,0000000.000s, 032.8C,00002195
2016-07-27 08:42:23 r, 00.00m,0000564310Hz,0000000000c,0000000.000s, 033.1C,00002195
2016-07-27 08:52:23 r, 00.00m,0000564386Hz,0000000000c,0000000.000s, 033.1C,00002195
2016-07-27 09:02:24 r, 00.00m,0000564351Hz,0000000000c,0000000.000s, 033.5C,00002195
2016-07-27 09:12:23 r, 00.00m,0000564455Hz,0000000000c,0000000.000s, 034.1C,00002195
2016-07-27 09:22:23 r, 00.00m,0000564890Hz,0000000000c,0000000.000s, 037.7C,00002195
2016-07-27 09:32:23 r, 00.00m,0000565071Hz,0000000000c,0000000.000s, 040.2C,00002195
2016-07-27 09:42:23 r, 00.00m,0000565372Hz,0000000000c,0000000.000s, 042.5C,00002195
2016-07-27 09:52:23 r, 00.00m,0000565398Hz,0000000000c,0000000.000s, 043.5C,00002195
2016-07-27 10:02:25 r, 00.00m,0000565495Hz,0000000000c,0000000.000s, 044.8C,00002195
2016-07-27 10:12:23 r, 00.00m,0000565535Hz,0000000000c,0000000.000s, 045.7C,00002195
2016-07-27 10:22:23 r, 00.00m,0000565655Hz,0000000000c,0000000.000s, 046.7C,00002195
2016-07-27 10:32:23 r, 00.00m,0000565640Hz,0000000000c,0000000.000s, 047.3C,00002195
2016-07-27 10:42:23 r, 00.00m,0000565647Hz,0000000000c,0000000.000s, 047.3C,00002195
2016-07-27 10:52:23 r, 00.00m,0000565704Hz,0000000000c,0000000.000s, 048.0C,00002195
2016-07-27 11:02:23 r, 00.00m,0000565649Hz,0000000000c,0000000.000s, 048.3C,00002195
2016-07-27 11:12:23 r, 00.00m,0000565714Hz,0000000000c,0000000.000s, 049.3C,00002195
2016-07-27 11:22:23 r, 00.00m,0000565832Hz,0000000000c,0000000.000s, 050.2C,00002195
2016-07-27 11:32:23 r, 00.00m,0000565663Hz,0000000000c,0000000.000s, 048.0C,00002195
2016-07-27 11:42:23 r, 00.00m,0000565848Hz,0000000000c,0000000.000s, 050.6C,00002195
2016-07-27 11:52:24 r, 00.00m,0000565826Hz,0000000000c,0000000.000s, 051.8C,00002195
2016-07-27 12:02:23 r, 00.00m,0000565700Hz,0000000000c,0000000.000s, 049.6C,00002195
2016-07-27 12:12:23 r, 00.00m,0000565679Hz,0000000000c,0000000.000s, 049.6C,00002195
2016-07-27 12:22:23 r, 00.00m,0000565716Hz,0000000000c,0000000.000s, 049.6C,00002195
2016-07-27 12:32:23 r, 00.00m,0000565849Hz,0000000000c,0000000.000s, 051.8C,00002195
2016-07-27 12:42:23 r, 00.00m,0000565650Hz,0000000000c,0000000.000s, 049.6C,00002195
2016-07-27 12:52:23 r, 00.00m,0000565738Hz,0000000000c,0000000.000s, 049.6C,00002195
2016-07-27 13:02:23 r, 00.00m,0000565842Hz,0000000000c,0000000.000s, 051.5C,00002195
2016-07-27 13:12:23 r, 00.00m,0000565751Hz,0000000000c,0000000.000s, 050.6C,00002195
2016-07-27 13:22:23 r, 00.00m,0000565538Hz,0000000000c,0000000.000s, 048.6C,00002195
2016-07-27 13:32:23 r, 00.00m,0000565547Hz,0000000000c,0000000.000s, 048.0C,00002195
2016-07-27 13:42:23 r, 00.00m,0000565349Hz,0000000000c,0000000.000s, 046.4C,00002195
2016-07-27 13:52:23 r, 00.00m,0000565633Hz,0000000000c,0000000.000s, 048.3C,00002195
2016-07-27 14:02:23 r, 00.00m,0000565494Hz,0000000000c,0000000.000s, 047.7C,00002195
2016-07-27 14:12:23 r, 00.00m,0000565439Hz,0000000000c,0000000.000s, 046.7C,00002195
2016-07-27 14:22:23 r, 00.00m,0000565503Hz,0000000000c,0000000.000s, 047.7C,00002195
2016-07-27 14:32:23 r, 00.00m,0000565380Hz,0000000000c,0000000.000s, 047.0C,00002195
2016-07-27 14:42:23 r, 00.00m,0000565303Hz,0000000000c,0000000.000s, 046.0C,00002195
2016-07-27 14:52:25 r, 00.00m,0000565363Hz,0000000000c,0000000.000s, 046.4C,00002195
2016-07-27 15:02:24 r, 00.00m,0000565549Hz,0000000000c,0000000.000s, 048.0C,00002195
2016-07-27 15:12:23 r, 00.00m,0000565751Hz,0000000000c,0000000.000s, 050.2C,00002195
2016-07-27 15:22:23 r, 00.00m,0000565740Hz,0000000000c,0000000.000s, 050.2C,00002195
2016-07-27 15:32:23 r, 00.00m,0000565616Hz,0000000000c,0000000.000s, 048.6C,00002195
2016-07-27 15:42:23 r, 00.00m,0000565597Hz,0000000000c,0000000.000s, 048.6C,00002195
2016-07-27 15:52:23 r, 00.00m,0000565760Hz,0000000000c,0000000.000s, 050.6C,00002195
2016-07-27 16:02:23 r, 00.00m,0000565577Hz,0000000000c,0000000.000s, 048.9C,00002195
2016-07-27 16:12:23 r, 00.00m,0000565729Hz,0000000000c,0000000.000s, 051.2C,00002195
2016-07-27 16:22:24 r, 00.00m,0000565790Hz,0000000000c,0000000.000s, 051.8C,00002195
2016-07-27 16:32:23 r, 00.00m,0000565707Hz,0000000000c,0000000.000s, 051.8C,00002195
2016-07-27 16:42:24 r, 00.00m,0000565787Hz,0000000000c,0000000.000s, 052.2C,00002195
2016-07-27 16:52:23 r, 00.00m,0000565672Hz,0000000000c,0000000.000s, 052.2C,00002195
2016-07-27 17:02:24 r, 00.00m,0000565670Hz,0000000000c,0000000.000s, 050.6C,00002195
2016-07-27 17:12:24 r, 00.00m,0000565565Hz,0000000000c,0000000.000s, 050.6C,00002195
2016-07-27 17:22:24 r, 00.00m,0000565652Hz,0000000000c,0000000.000s, 050.9C,00002195
2016-07-27 17:32:24 r, 00.00m,0000565589Hz,0000000000c,0000000.000s, 051.2C,00002195
2016-07-27 17:42:23 r, 00.00m,0000565368Hz,0000000000c,0000000.000s, 048.3C,00002195
2016-07-27 17:52:23 r, 00.00m,0000565163Hz,0000000000c,0000000.000s, 045.1C,00002195
2016-07-27 18:02:23 r, 00.00m,0000565109Hz,0000000000c,0000000.000s, 044.4C,00002195
2016-07-27 18:12:24 r, 00.00m,0000565252Hz,0000000000c,0000000.000s, 046.0C,00002195
2016-07-27 18:22:24 r, 00.00m,0000565376Hz,0000000000c,0000000.000s, 046.0C,00002195
2016-07-27 18:32:23 r, 00.00m,0000565174Hz,0000000000c,0000000.000s, 045.7C,00002195
2016-07-27 18:42:23 r, 00.00m,0000565157Hz,0000000000c,0000000.000s, 045.1C,00002195
2016-07-27 18:52:23 r, 00.00m,0000565124Hz,0000000000c,0000000.000s, 044.1C,00002195
2016-07-27 19:02:24 r, 00.00m,0000564985Hz,0000000000c,0000000.000s, 043.1C,00002195
2016-07-27 19:12:23 r, 00.00m,0000564942Hz,0000000000c,0000000.000s, 042.5C,00002195
2016-07-27 19:22:24 r, 00.00m,0000564940Hz,0000000000c,0000000.000s, 042.2C,00002195
2016-07-27 19:32:23 r, 00.00m,0000564923Hz,0000000000c,0000000.000s, 041.9C,00002195
2016-07-27 19:42:23 r, 00.00m,0000564831Hz,0000000000c,0000000.000s, 041.2C,00002195
2016-07-27 19:52:23 r, 00.00m,0000564750Hz,0000000000c,0000000.000s, 040.6C,00002195
2016-07-27 20:02:23 r, 00.00m,0000564684Hz,0000000000c,0000000.000s, 039.9C,00002195
2016-07-27 20:12:23 r, 00.00m,0000564691Hz,0000000000c,0000000.000s, 039.0C,00002195
2016-07-27 20:22:23 r, 00.00m,0000519884Hz,0000000000c,0000000.000s, 038.0C,00002195
2016-07-27 20:32:23 r, 00.00m,0000445207Hz,0000000000c,0000000.000s, 037.0C,00002195
2016-07-27 20:42:23 r, 05.97m,0000364866Hz,0000000000c,0000000.000s, 036.7C,00002195
2016-07-27 20:52:23 r, 06.28m,0000274936Hz,0000000000c,0000000.000s, 035.7C,00002195
2016-07-27 21:02:23 r, 06.72m,0000182821Hz,0000000000c,0000000.000s, 035.4C,00002195
2016-07-27 21:12:23 r, 07.35m,0000102365Hz,0000000000c,0000000.000s, 035.1C,00002195
2016-07-27 21:22:23 r, 08.30m,0000042603Hz,0000000000c,0000000.000s, 034.8C,00002195
2016-07-27 21:32:24 r, 09.48m,0000014416Hz,0000000000c,0000000.000s, 034.4C,00002195
2016-07-27 21:42:23 r, 10.96m,0000003670Hz,0000000000c,0000000.000s, 034.1C,00002195
2016-07-27 21:52:23 r, 12.62m,0000000799Hz,0000000000c,0000000.000s, 033.8C,00002195
2016-07-27 22:02:23 r, 14.33m,0000000164Hz,0000000000c,0000000.000s, 033.8C,00002195
2016-07-27 22:12:23 r, 15.87m,0000000040Hz,0000011594c,0000000.025s, 033.5C,00002195
2016-07-27 22:22:23 r, 16.94m,0000000015Hz,0000031090c,0000000.067s, 033.5C,00002195
2016-07-27 22:32:23 r, 17.74m,0000000008Hz,0000065126c,0000000.141s, 033.1C,00002195
2016-07-27 22:42:23 r, 18.25m,0000000004Hz,0000103610c,0000000.225s, 033.1C,00002195
2016-07-27 22:52:23 r, 18.52m,0000000004Hz,0000132540c,0000000.288s, 032.8C,00002195
2016-07-27 23:02:23 r, 18.66m,0000000003Hz,0000150836c,0000000.327s, 032.8C,00002195
2016-07-27 23:12:23 r, 18.74m,0000000003Hz,0000163052c,0000000.354s, 032.5C,00002195
2016-07-27 23:22:23 r, 18.76m,0000000003Hz,0000165908c,0000000.360s, 032.5C,00002195
2016-07-27 23:32:24 r, 18.78m,0000000003Hz,0000169530c,0000000.368s, 032.2C,00002195
2016-07-27 23:42:24 r, 18.80m,0000000003Hz,0000171736c,0000000.373s, 032.2C,00002195
2016-07-27 23:52:24 r, 18.81m,0000000003Hz,0000172816c,0000000.375s, 032.2C,00002195
